Fulton, NY

8:00 PM EST on January 24, 2017 (GMT -0500)
Oswego County

Weather History for KFZY - December, 2012

Change the Weather History Date:

Sunday, December 30, 2012

  Actual Average (KSYR) Record (KSYR)
Temperature  
Mean Temperature 24 °F -  
Max Temperature 27 °F 32 °F 58 °F (1990)
Min Temperature 21 °F 17 °F -20 °F (1917)
Degree Days  
Heating Degree Days 41    
Moisture  
Dew Point 18 °F    
Average Humidity 80    
Maximum Humidity 93    
Minimum Humidity 61    
Precipitation  
Precipitation 0.03 in - - ()
Sea Level Pressure  
Sea Level Pressure 30.00 in    
Wind  
Wind Speed 9 mph (WNW)    
Max Wind Speed 22 mph    
Max Gust Speed 29 mph    
Visibility 6 miles    
Events Fog , Snow    
Averages and records for this station are not official NWS values.
T = Trace of Precipitation, MM = Missing Value Source: NWS Daily Summary

Daily Weather History Graph

Daily Weather History Graph

Search for Another Location

Airport or City:

Trip Planner

Search our weather history database for the weather conditions in past years. The results will help you decide how hot, cold, wet, or windy it might be!

Date:

Astronomy

Dec. 30, 2012 Rise Set
Actual Time 7:37 AM EST 4:38 PM EST
Civil Twilight 7:05 AM EST 5:11 PM EST
Nautical Twilight 6:29 AM EST 5:47 PM EST
Astronomical Twilight 5:54 AM EST 6:22 PM EST
Moon 7:12 PM EST (12/30) 8:41 AM EST (12/30)
Length of Visible Light 10h 06m
Length of Day
9h 01m
Waning Gibbous, 95% of the Moon is Illuminated
Dec 30
Waning Gibbous
Jan 4
Last Quarter
Jan 11
New
Jan 18
First Quarter
Jan 26
Full

Hourly Weather History & Observations

Time (EST) Temp. Windchill Dew Point Humidity Pressure Visibility Wind Dir Wind Speed Gust Speed Precip Events Conditions
12:08 AM 21.2 °F 14.9 °F 17.6 °F 86% 29.77 in 2.0 mi NNW 4.6 mph - 0.00 in Snow Light Snow
12:15 AM 21.2 °F 14.9 °F 17.6 °F 86% 29.77 in 1.8 mi NNW 4.6 mph - 0.00 in Snow Light Snow
12:54 AM 21.9 °F 14.5 °F 18.0 °F 85% 29.79 in 2.0 mi NW 5.8 mph - 0.00 in Snow Light Snow
1:09 AM 21.2 °F 13.6 °F 19.4 °F 93% 29.78 in 2.5 mi NNW 5.8 mph - 0.01 in Snow Light Snow
1:25 AM 21.2 °F 12.6 °F 19.4 °F 93% 29.78 in 1.8 mi NW 6.9 mph - 0.01 in Snow Light Snow
1:40 AM 21.2 °F 11.7 °F 19.4 °F 93% 29.79 in 2.5 mi NNW 8.1 mph - 0.01 in Snow Light Snow
1:54 AM 21.9 °F 11.7 °F 19.0 °F 89% 29.81 in 2.0 mi NW 9.2 mph - 0.01 in Snow Light Snow
1:59 AM 21.2 °F 12.6 °F 19.4 °F 93% 29.80 in 2.0 mi NNW 6.9 mph - 0.00 in Snow Light Snow
2:02 AM 21.2 °F 12.6 °F 19.4 °F 93% 29.80 in 2.0 mi NW 6.9 mph - 0.00 in Snow Light Snow
2:21 AM 21.2 °F 10.1 °F 17.6 °F 86% 29.81 in 4.0 mi NW 10.4 mph - 0.00 in Snow Light Snow
2:30 AM 21.2 °F 11.7 °F 17.6 °F 86% 29.81 in 4.0 mi NW 8.1 mph - 0.00 in Snow Light Snow
2:46 AM 21.2 °F 10.1 °F 17.6 °F 86% 29.82 in 2.0 mi NW 10.4 mph - 0.00 in Snow Light Snow
2:54 AM 21.9 °F 11.7 °F 18.0 °F 85% 29.84 in 2.0 mi NW 9.2 mph - 0.00 in Snow Light Snow
3:02 AM 21.2 °F 8.9 °F 17.6 °F 86% 29.83 in 1.5 mi NW 12.7 mph - 0.00 in Snow Light Snow
3:36 AM 21.2 °F 10.1 °F 17.6 °F 86% 29.83 in 2.0 mi NW 10.4 mph - 0.00 in Snow Light Snow
3:52 AM 21.2 °F 10.1 °F 17.6 °F 86% 29.83 in 2.0 mi NW 10.4 mph - 0.00 in Snow Light Snow
3:54 AM 21.0 °F 9.3 °F 17.1 °F 85% 29.86 in 2.0 mi NW 11.5 mph - 0.00 in Snow Light Snow
4:14 AM 21.2 °F 9.5 °F 17.6 °F 86% 29.84 in 2.5 mi NW 11.5 mph - 0.00 in Snow Light Snow
4:25 AM 21.2 °F 10.9 °F 17.6 °F 86% 29.84 in 3.0 mi NW 9.2 mph - 0.00 in Snow Light Snow
4:54 AM 21.0 °F 10.6 °F 17.1 °F 85% 29.88 in 3.0 mi NW 9.2 mph - 0.00 in Snow Light Snow
5:54 AM 21.9 °F 10.4 °F 18.0 °F 85% 29.90 in 2.5 mi NW 11.5 mph - 0.01 in Snow Light Snow
6:03 AM 21.2 °F 10.1 °F 17.6 °F 86% 29.88 in 5.0 mi NW 10.4 mph - 0.00 in Snow Light Snow
6:54 AM 23.0 °F 10.1 °F 19.0 °F 85% 29.93 in 5.0 mi NW 15.0 mph - 0.00 in Snow Light Snow
7:54 AM 23.0 °F 10.6 °F 18.0 °F 81% 29.96 in 10.0 mi NW 13.8 mph 20.7 mph 0.00 in   Overcast
8:54 AM 24.1 °F 12.5 °F 17.1 °F 75% 30.00 in 10.0 mi WNW 12.7 mph - 0.00 in   Overcast
9:54 AM 21.9 °F 8.2 °F 16.0 °F 78% 30.05 in 10.0 mi NW 16.1 mph 24.2 mph 0.00 in   Overcast
10:54 AM 21.0 °F 8.1 °F 14.0 °F 74% 30.09 in 10.0 mi NNW 13.8 mph 25.3 mph N/A   Overcast
11:54 AM 21.9 °F 8.7 °F 15.1 °F 75% 30.10 in 10.0 mi NW 15.0 mph 24.2 mph N/A   Overcast
12:35 PM 23.0 °F 8.7 °F 15.8 °F 74% 30.07 in 10.0 mi WNW 18.4 mph 25.3 mph N/A   Scattered Clouds
12:44 PM 23.0 °F 9.6 °F 15.8 °F 74% 30.07 in 10.0 mi NW 16.1 mph 20.7 mph N/A   Mostly Cloudy
12:54 PM 24.1 °F 11.5 °F 15.1 °F 69% 30.10 in 10.0 mi NW 15.0 mph - N/A   Mostly Cloudy
1:18 PM 24.8 °F 10.0 °F 14.0 °F 64% 30.08 in 9.0 mi NW 21.9 mph 28.8 mph N/A   Scattered Clouds
1:54 PM 24.1 °F 10.6 °F 15.1 °F 69% 30.10 in 10.0 mi WNW 17.3 mph - N/A   Scattered Clouds
2:06 PM 24.8 °F 11.1 °F 15.8 °F 69% 30.09 in 10.0 mi WNW 18.4 mph 23.0 mph N/A   Mostly Cloudy
2:52 PM 24.8 °F 10.3 °F 15.8 °F 69% 30.11 in 10.0 mi WNW 20.7 mph 27.6 mph N/A   Scattered Clouds
2:54 PM 25.0 °F 10.6 °F 15.1 °F 66% 30.13 in 10.0 mi WNW 20.7 mph 27.6 mph N/A   Partly Cloudy
3:54 PM 25.0 °F 12.6 °F 15.1 °F 66% 30.16 in 10.0 mi NW 15.0 mph 21.9 mph N/A   Scattered Clouds
4:54 PM 24.1 °F 14.4 °F 14.0 °F 65% 30.19 in 10.0 mi NW 9.2 mph - N/A   Clear
5:54 PM 24.1 °F 13.1 °F 14.0 °F 65% 30.22 in 10.0 mi NW 11.5 mph - N/A   Scattered Clouds
6:54 PM 27.0 °F 18.0 °F 15.1 °F 61% 30.22 in 10.0 mi NW 9.2 mph - N/A   Overcast
7:54 PM 26.1 °F - 16.0 °F 66% 30.21 in 10.0 mi Calm Calm - N/A   Overcast
8:54 PM 26.1 °F 20.5 °F 17.1 °F 69% 30.21 in 10.0 mi SW 4.6 mph - N/A   Overcast
9:07 PM 26.6 °F 17.5 °F 19.4 °F 74% 30.18 in 2.0 mi WSW 9.2 mph - 0.00 in Snow Light Snow
9:12 PM 26.6 °F 18.2 °F 21.2 °F 80% 30.19 in 1.0 mi WSW 8.1 mph - 0.00 in Snow Light Snow
9:19 PM 24.8 °F 16.9 °F 23.0 °F 93% 30.18 in 0.5 mi WSW 6.9 mph - 0.01 in Fog , Snow Snow
9:27 PM 26.6 °F 20.0 °F 24.8 °F 93% 30.18 in 0.5 mi West 5.8 mph - 0.01 in Fog , Snow Snow
9:31 PM 26.6 °F 20.0 °F 24.8 °F 93% 30.18 in 1.0 mi West 5.8 mph - 0.01 in Snow Light Snow
9:36 PM 26.6 °F 21.2 °F 24.8 °F 93% 30.17 in 2.0 mi WSW 4.6 mph - 0.01 in Snow Light Snow
9:45 PM 26.6 °F - 23.0 °F 86% 30.17 in 7.0 mi Calm Calm - 0.01 in Snow Light Snow
9:54 PM 26.1 °F 21.9 °F 21.0 °F 81% 30.19 in 10.0 mi SW 3.5 mph - 0.01 in   Overcast
10:54 PM 25.0 °F 18.1 °F 19.0 °F 78% 30.18 in 10.0 mi SSW 5.8 mph - N/A   Overcast
11:54 PM 27.0 °F 18.7 °F 19.0 °F 72% 30.17 in 10.0 mi SW 8.1 mph - N/A   Overcast